星链-37074(STARLINK-37074)

导读

STARLINK-37074(NORAD编号68073)是美国SpaceX公司星链(Starlink)项目的低轨互联网卫星,于2024年12月8日发射,截至2026年4月已在轨飞行超480天。该卫星采用Starlink V1.0平台,运行在近地点约355公里、远地点约357公里的近地轨道,轨道倾角43.001°,环绕地球周期约91.66分钟。作为星链全球卫星互联网组网的一部分,它旨在为全球提供高速低延迟互联网接入,支持偏远地区网络覆盖及商业、特殊行业通信服务。

基本信息
目录编号:
68073
目录名称:
STARLINK-37074
国际标识:
2026-042E
轨道中心:
EARTH
卫星名称:
星链-37074
卫星全名:
星链-37074(STARLINK-37074)
卫星状态:
在轨 (已飞行101 天)
发射日期:
2026-03-04 UTC
国别 :
美国 (US)
星等 :
--
轨道信息
数据来源 国际轨道数据 AOE轨道数据
星历时间 2026-06-12T09:47:37+0800
23小时前
查看轨道信息
2026-06-12T01:00:00+0800
1天前
查看轨道信息
半长轴 6840.837km 6840.955km
偏心率 0.0001693 0.0001499
轨道倾角 53.159° 53.159°
近地点辐角 87.489° 94.542°
升交点赤经 99.055° 100.769°
平近点角 272.631° 40.526°
近地点 461.541km 461.792km
远地点 463.859km 463.844km
周期 93.848分钟 93.850分钟
每日圈数 15.344013 15.343614
详细信息
固有亮度:
5
最大亮度:
2.5
卫星平台:
Starlink V1.0
覆盖范围:
全球
运营商:
太空探索技术公司
运营商所在国:
美国
制造商(研发单位):
太空探索技术公司
制造商所在国:
美国
使用方式:
暂无
卫星简介
Starlink 计划是 SpaceX 推出的全球卫星互联网项目,通过发射低轨道卫星,为全球尤其是偏远地区提供高速、低延迟的互联网服务。自 2019 年起,Starlink 已部署数千颗卫星,旨在缩小全球数字鸿沟,推动互联网普及。该项目还为军事、航空等行业提供通信支持,带来广泛经济效益。
2D轨道图
3D轨道图
轨道高度分析图
轨道倾角分析图
轨道综合分析图
查看轨道综合分析图